Location: Unspecified
(0.0000°N, 0.0000°E)
Time: 02:13:31
(UTC+00:00)

Cosmos 2333 Rocket - Visible Passes

Search period start: 15 December 2025 00:00
Search period end: 25 December 2025 00:00
Orbit: 837 x 865 km, 70.8° (Epoch: 14 December)

Date Brightness Start Highest point End Pass type
(mag) Time Alt. Az. Time Alt. Az. Time Alt. Az.
15 Dec 4.4 05:04:31 10° NNE 05:09:04 25° ENE 05:13:37 10° SE visible
16 Dec 4.3 04:52:17 10° NNE 04:56:51 25° ENE 05:01:24 10° SE visible
17 Dec 4.3 04:40:04 10° NNE 04:44:38 25° ENE 04:49:11 10° SE visible
18 Dec 4.2 04:27:50 10° NNE 04:32:24 25° ENE 04:36:57 10° SE visible
19 Dec 4.2 04:15:36 10° NNE 04:20:10 25° ENE 04:24:44 10° SE visible
20 Dec 4.1 04:03:22 10° NNE 04:07:57 25° ENE 04:12:30 10° SE visible
21 Dec 4.1 03:51:43 12° NNE 03:55:43 25° ENE 04:00:17 10° SE visible
22 Dec 4.1 03:40:48 18° NE 03:43:30 25° ENE 03:48:03 10° SE visible
22 Dec 3.4 05:23:10 10° NW 05:27:29 22° WSW 05:31:47 10° SSW visible
23 Dec 4.0 03:29:51 23° NE 03:31:16 25° ENE 03:35:50 10° SE visible
23 Dec 3.4 05:11:56 14° WNW 05:15:14 22° WSW 05:19:33 10° SSW visible
24 Dec 3.9 03:18:51 25° ENE 03:19:02 25° ENE 03:23:36 10° SE visible
24 Dec 3.4 05:00:55 18° WNW 05:03:01 22° WSW 05:07:19 10° SSW visible
